FIN5UP EPWA-EFHK

Flight info

Callsign FIN5UP
Flight time 1h 24m
Altitude 41000
Route BAMSO Z182 ASLUX DCT BULEP M857 UNPEG DCT BOKSU DCT GUNTA M857 SOKVA DCT ANAMA DCT KEMET DCT KEXLE DCT BEKNA DCT INTOR
Aircraft E190/M-SDE3GILORVW/S

Departure

Time 2026-05-06 15:23
Airport Warsaw Chopin Airport (EPWA)

Arrival

Time 2026-05-06 16:47
Airport Helsinki Vantaa Airport (EFHK)
Time Latitude Longitude Altitude Speed Heading
2026-05-06 15:04 52.17047 20.97102 364 ft 0 kts 70°
2026-05-06 15:14 52.17043 20.97084 364 ft 2 kts 73°
2026-05-06 15:14 52.17038 20.97061 364 ft 2 kts 69°
2026-05-06 15:15 52.17033 20.97039 364 ft 2 kts 70°
2026-05-06 15:15 52.17028 20.97016 364 ft 2 kts 70°
2026-05-06 15:15 52.17023 20.96993 364 ft 2 kts 70°
2026-05-06 15:15 52.17021 20.96969 364 ft 2 kts 112°
2026-05-06 15:16 52.17029 20.96952 364 ft 0 kts 147°
2026-05-06 15:16 52.17035 20.96947 364 ft 1 kts 153°
2026-05-06 15:16 52.17037 20.96946 364 ft 0 kts 152°
2026-05-06 15:18 52.17036 20.96947 364 ft 0 kts 152°
2026-05-06 15:18 52.17014 20.96965 364 ft 7 kts 153°
2026-05-06 15:18 52.16955 20.97015 364 ft 10 kts 152°
2026-05-06 15:18 52.16898 20.97083 364 ft 10 kts 123°
2026-05-06 15:19 52.16837 20.97160 364 ft 14 kts 152°
2026-05-06 15:19 52.16756 20.97232 364 ft 0 kts 131°
2026-05-06 15:19 52.16739 20.97244 364 ft 7 kts 169°
2026-05-06 15:19 52.16676 20.97241 364 ft 9 kts 184°
2026-05-06 15:20 52.16611 20.97253 364 ft 9 kts 135°
2026-05-06 15:20 52.16578 20.97353 364 ft 10 kts 116°
2026-05-06 15:20 52.16547 20.97462 364 ft 11 kts 115°
2026-05-06 15:20 52.16502 20.97620 364 ft 18 kts 114°
2026-05-06 15:21 52.16444 20.97827 364 ft 21 kts 114°
2026-05-06 15:21 52.16380 20.98047 364 ft 21 kts 117°
2026-05-06 15:21 52.16295 20.98243 364 ft 21 kts 140°
2026-05-06 15:21 52.16173 20.98382 364 ft 21 kts 147°
2026-05-06 15:22 52.16126 20.98305 364 ft 12 kts 292°
2026-05-06 15:22 52.16208 20.98007 364 ft 61 kts 294°
2026-05-06 15:22 52.16470 20.97066 365 ft 124 kts 294°
2026-05-06 15:22 52.16938 20.95494 632 ft 167 kts 295°
2026-05-06 15:23 52.17482 20.93912 1532 ft 165 kts 294°
2026-05-06 15:23 52.18006 20.92162 2132 ft 184 kts 294°
2026-05-06 15:23 52.18986 20.90628 2671 ft 217 kts 324°
2026-05-06 15:23 52.20329 20.89337 3469 ft 231 kts 325°
2026-05-06 15:24 52.21754 20.87929 4163 ft 248 kts 317°
2026-05-06 15:24 52.23009 20.85923 4937 ft 260 kts 309°
2026-05-06 15:24 52.24257 20.83788 5839 ft 268 kts 308°
2026-05-06 15:24 52.25536 20.81602 6803 ft 272 kts 308°
2026-05-06 15:25 52.27110 20.79849 7855 ft 283 kts 338°
2026-05-06 15:25 52.29013 20.79157 8908 ft 285 kts 344°
2026-05-06 15:25 52.30944 20.78597 9905 ft 287 kts 351°
2026-05-06 15:25 52.32928 20.79231 10762 ft 303 kts 25°
2026-05-06 15:26 52.34518 20.81501 11400 ft 319 kts 56°
2026-05-06 15:26 52.35315 20.84982 11794 ft 337 kts 87°
2026-05-06 15:26 52.35079 20.88794 12354 ft 346 kts 103°
2026-05-06 15:26 52.34812 20.92765 13157 ft 354 kts 96°
2026-05-06 15:27 52.34705 20.96786 14081 ft 356 kts 94°
2026-05-06 15:27 52.34657 21.00800 14946 ft 359 kts 94°
2026-05-06 15:27 52.34631 21.04874 15712 ft 364 kts 94°
2026-05-06 15:27 52.34711 21.09078 16436 ft 374 kts 83°
2026-05-06 15:28 52.35265 21.13253 17143 ft 381 kts 79°
2026-05-06 15:28 52.35866 21.17493 17849 ft 387 kts 79°
2026-05-06 15:28 52.36474 21.21795 18653 ft 392 kts 79°
2026-05-06 15:28 52.37084 21.26128 19435 ft 395 kts 79°
2026-05-06 15:29 52.37699 21.30512 20265 ft 397 kts 79°
2026-05-06 15:29 52.37912 21.34928 21029 ft 393 kts 98°
2026-05-06 15:29 52.37610 21.39367 21792 ft 394 kts 100°
2026-05-06 15:29 52.37276 21.43837 22527 ft 398 kts 100°
2026-05-06 15:30 52.36934 21.48327 23236 ft 402 kts 100°
2026-05-06 15:30 52.36587 21.52856 23949 ft 405 kts 100°
2026-05-06 15:30 52.36235 21.57414 24634 ft 409 kts 101°
2026-05-06 15:30 52.35873 21.62060 25268 ft 414 kts 101°
2026-05-06 15:31 52.35509 21.66722 25881 ft 419 kts 101°
2026-05-06 15:31 52.35137 21.71456 26527 ft 422 kts 101°
2026-05-06 15:31 52.34759 21.76244 27111 ft 427 kts 101°
2026-05-06 15:32 52.33989 21.85920 28292 ft 435 kts 101°
2026-05-06 15:32 52.33595 21.90834 28869 ft 439 kts 101°
2026-05-06 15:32 52.33350 21.95838 29390 ft 447 kts 93°
2026-05-06 15:32 52.33580 22.00864 29929 ft 454 kts 83°
2026-05-06 15:33 52.34337 22.05920 30478 ft 460 kts 72°
2026-05-06 15:33 52.35597 22.10731 30991 ft 465 kts 62°
2026-05-06 15:33 52.37323 22.15169 31475 ft 469 kts 52°
2026-05-06 15:33 52.39488 22.19207 31960 ft 471 kts 42°
2026-05-06 15:34 52.41978 22.22584 32524 ft 470 kts 32°
2026-05-06 15:34 52.44762 22.25259 33144 ft 466 kts 22°
2026-05-06 15:34 52.47783 22.27167 33776 ft 461 kts 12°
2026-05-06 15:34 52.50848 22.28209 34376 ft 454 kts
2026-05-06 15:35 52.53996 22.28938 34909 ft 457 kts
2026-05-06 15:35 52.57040 22.30386 35421 ft 459 kts 14°
2026-05-06 15:35 52.60063 22.32066 35945 ft 458 kts 15°
2026-05-06 15:35 52.63057 22.33772 36446 ft 456 kts 15°
2026-05-06 15:36 52.66019 22.35475 37000 ft 455 kts 16°
2026-05-06 15:36 52.69023 22.37206 37550 ft 454 kts 16°
2026-05-06 15:36 52.71956 22.38901 38011 ft 453 kts 16°
2026-05-06 15:36 52.74944 22.40630 38452 ft 453 kts 16°
2026-05-06 15:37 52.77919 22.42182 38870 ft 450 kts
2026-05-06 15:37 52.80979 22.43285 39300 ft 449 kts
2026-05-06 15:37 52.83995 22.44367 39697 ft 449 kts
2026-05-06 15:37 52.87051 22.45469 40026 ft 448 kts
2026-05-06 15:38 52.90096 22.46569 40321 ft 448 kts
2026-05-06 15:38 52.93138 22.47670 40601 ft 448 kts
2026-05-06 15:38 52.96130 22.48755 40724 ft 440 kts
2026-05-06 15:38 52.99163 22.49855 40747 ft 447 kts
2026-05-06 15:39 53.05327 22.52097 40759 ft 461 kts
2026-05-06 15:39 53.11663 22.54409 40751 ft 475 kts
2026-05-06 15:40 53.17683 22.56612 40743 ft 475 kts
2026-05-06 15:40 53.23960 22.58916 40736 ft 475 kts
2026-05-06 15:41 53.30412 22.61578 40733 ft 477 kts 12°
2026-05-06 15:41 53.36786 22.64336 40733 ft 477 kts 12°
2026-05-06 15:42 53.43242 22.67132 40724 ft 477 kts 12°
2026-05-06 15:42 53.49665 22.69922 40727 ft 477 kts 12°
2026-05-06 15:43 53.56065 22.72710 40716 ft 477 kts 13°
2026-05-06 15:43 53.62484 22.75517 40714 ft 477 kts 12°
2026-05-06 15:44 53.68869 22.78317 40711 ft 477 kts 12°
2026-05-06 15:44 53.75267 22.81130 40711 ft 477 kts 13°
2026-05-06 15:45 53.81702 22.83971 40713 ft 478 kts 12°
2026-05-06 15:45 53.88135 22.86818 40717 ft 480 kts 13°
2026-05-06 15:46 53.94546 22.89665 40712 ft 477 kts 13°
2026-05-06 15:46 54.00928 22.92508 40709 ft 478 kts 13°
2026-05-06 15:47 54.07380 22.95391 40719 ft 479 kts 13°
2026-05-06 15:47 54.13750 22.98248 40715 ft 478 kts 13°
2026-05-06 15:48 54.20198 23.01148 40726 ft 479 kts 13°
2026-05-06 15:48 54.26389 23.03941 40732 ft 479 kts 13°
2026-05-06 15:49 54.32823 23.06673 40727 ft 478 kts
2026-05-06 15:49 54.39401 23.08696 40739 ft 478 kts
2026-05-06 15:50 54.45876 23.10775 40733 ft 479 kts
2026-05-06 15:50 54.52438 23.12894 40742 ft 479 kts
2026-05-06 15:51 54.58984 23.15015 40738 ft 480 kts
2026-05-06 15:51 54.65514 23.17138 40743 ft 480 kts
2026-05-06 15:52 54.72064 23.19274 40749 ft 480 kts
2026-05-06 15:52 54.78617 23.21419 40752 ft 481 kts
2026-05-06 15:53 54.85171 23.23570 40738 ft 480 kts
2026-05-06 15:53 54.91754 23.25739 40738 ft 480 kts
2026-05-06 15:54 54.98304 23.27904 40734 ft 480 kts
2026-05-06 15:54 55.04827 23.30067 40750 ft 481 kts
2026-05-06 15:55 55.11416 23.32259 40744 ft 481 kts
2026-05-06 15:55 55.17975 23.34449 40747 ft 481 kts
2026-05-06 15:56 55.24477 23.36627 40759 ft 481 kts
2026-05-06 15:56 55.31041 23.38832 40764 ft 482 kts
2026-05-06 15:57 55.37582 23.41038 40775 ft 482 kts
2026-05-06 15:57 55.44143 23.43258 40786 ft 482 kts
2026-05-06 15:58 55.50708 23.45487 40783 ft 482 kts
2026-05-06 15:58 55.57285 23.47727 40795 ft 482 kts
2026-05-06 15:59 55.63818 23.49960 40818 ft 483 kts
2026-05-06 15:59 55.70430 23.52228 40832 ft 482 kts
2026-05-06 16:00 55.76951 23.54472 40849 ft 483 kts
2026-05-06 16:00 55.83501 23.56734 40844 ft 483 kts
2026-05-06 16:01 55.90105 23.59023 40845 ft 482 kts
2026-05-06 16:01 55.96637 23.61294 40848 ft 482 kts
2026-05-06 16:02 56.03211 23.63588 40863 ft 483 kts
2026-05-06 16:02 56.09780 23.65888 40858 ft 483 kts
2026-05-06 16:03 56.16365 23.68202 40860 ft 484 kts
2026-05-06 16:03 56.22935 23.70518 40867 ft 483 kts
2026-05-06 16:04 56.29415 23.72811 40866 ft 483 kts
2026-05-06 16:04 56.35972 23.75139 40869 ft 482 kts
2026-05-06 16:05 56.42538 23.77692 40894 ft 484 kts
2026-05-06 16:05 56.49097 23.80303 40893 ft 484 kts
2026-05-06 16:06 56.55608 23.82902 40899 ft 484 kts
2026-05-06 16:06 56.62147 23.85424 40917 ft 482 kts
2026-05-06 16:07 56.68724 23.87842 40931 ft 483 kts
2026-05-06 16:07 56.75300 23.90273 40934 ft 483 kts
2026-05-06 16:08 56.81800 23.92685 40925 ft 483 kts
2026-05-06 16:08 56.88375 23.95132 40935 ft 484 kts
2026-05-06 16:09 56.94931 23.97472 40958 ft 481 kts
2026-05-06 16:09 57.01490 23.99649 40945 ft 481 kts
2026-05-06 16:10 57.08068 24.01848 40948 ft 482 kts
2026-05-06 16:10 57.14630 24.04050 40941 ft 481 kts
2026-05-06 16:11 57.21204 24.06264 40944 ft 481 kts
2026-05-06 16:11 57.27747 24.08475 40939 ft 482 kts
2026-05-06 16:12 57.34312 24.10702 40939 ft 482 kts
2026-05-06 16:12 57.40897 24.12943 40937 ft 483 kts
2026-05-06 16:13 57.47475 24.15193 40932 ft 481 kts
2026-05-06 16:13 57.54022 24.17441 40936 ft 481 kts
2026-05-06 16:14 57.60584 24.19703 40935 ft 481 kts
2026-05-06 16:14 57.67159 24.21977 40936 ft 482 kts
2026-05-06 16:15 57.73726 24.24257 40930 ft 482 kts
2026-05-06 16:15 57.80275 24.26539 40934 ft 480 kts
2026-05-06 16:16 57.86833 24.28832 40941 ft 482 kts
2026-05-06 16:16 57.93407 24.31108 40941 ft 481 kts
2026-05-06 16:17 57.99961 24.33353 40939 ft 481 kts
2026-05-06 16:17 58.06508 24.35605 40940 ft 480 kts
2026-05-06 16:18 58.13023 24.37853 40938 ft 478 kts
2026-05-06 16:18 58.19584 24.40127 40939 ft 481 kts
2026-05-06 16:19 58.26129 24.42403 40952 ft 481 kts
2026-05-06 16:19 58.32713 24.44701 40948 ft 481 kts
2026-05-06 16:20 58.39218 24.46984 40943 ft 467 kts
2026-05-06 16:20 58.42401 24.48100 40800 ft 471 kts
2026-05-06 16:20 58.45610 24.49230 40348 ft 471 kts
2026-05-06 16:21 58.48826 24.50366 39816 ft 469 kts
2026-05-06 16:21 58.52002 24.51489 39300 ft 465 kts
2026-05-06 16:21 58.55174 24.52612 38751 ft 461 kts
2026-05-06 16:21 58.58299 24.53720 38198 ft 459 kts
2026-05-06 16:22 58.61398 24.54823 38160 ft 448 kts
2026-05-06 16:22 58.64418 24.55898 38142 ft 438 kts
2026-05-06 16:22 58.67489 24.56985 37751 ft 463 kts
2026-05-06 16:22 58.70712 24.58136 37347 ft 472 kts
2026-05-06 16:23 58.73905 24.59280 36938 ft 473 kts
2026-05-06 16:23 58.77130 24.60437 36522 ft 471 kts
2026-05-06 16:23 58.80309 24.61579 36105 ft 469 kts
2026-05-06 16:23 58.83551 24.62744 35682 ft 472 kts
2026-05-06 16:24 58.86780 24.63907 35262 ft 474 kts
2026-05-06 16:24 58.90004 24.65070 34820 ft 477 kts
2026-05-06 16:24 58.93269 24.66251 34281 ft 478 kts
2026-05-06 16:24 58.96521 24.67430 33724 ft 478 kts
2026-05-06 16:25 58.99805 24.68621 33176 ft 477 kts
2026-05-06 16:25 59.03037 24.69796 33200 ft 483 kts
2026-05-06 16:25 59.09704 24.72229 33062 ft 493 kts
2026-05-06 16:26 59.13029 24.73448 32451 ft 488 kts
2026-05-06 16:26 59.16327 24.74658 31874 ft 483 kts
2026-05-06 16:26 59.19549 24.75842 31321 ft 479 kts
2026-05-06 16:26 59.22783 24.77030 30767 ft 481 kts
2026-05-06 16:27 59.25998 24.78218 30191 ft 476 kts
2026-05-06 16:27 59.29257 24.79422 29495 ft 475 kts
2026-05-06 16:27 59.32473 24.80613 28785 ft 471 kts
2026-05-06 16:27 59.35646 24.81791 28077 ft 467 kts
2026-05-06 16:28 59.38786 24.82959 27379 ft 461 kts
2026-05-06 16:28 59.41911 24.84549 26660 ft 464 kts 14°
2026-05-06 16:28 59.44885 24.86926 25972 ft 464 kts 18°
2026-05-06 16:28 59.47834 24.89368 25273 ft 460 kts 17°
2026-05-06 16:29 59.50723 24.91764 24594 ft 456 kts 17°
2026-05-06 16:29 59.53639 24.94187 23908 ft 451 kts 17°
2026-05-06 16:29 59.56524 24.96590 23288 ft 446 kts 17°
2026-05-06 16:29 59.59333 24.98934 22645 ft 441 kts 17°
2026-05-06 16:30 59.62137 25.01279 21971 ft 434 kts 17°
2026-05-06 16:30 59.63969 25.02813 21537 ft 430 kts 17°
2026-05-06 16:30 59.67578 25.05840 20644 ft 421 kts 17°
2026-05-06 16:30 59.70274 25.08105 19957 ft 414 kts 17°
2026-05-06 16:31 59.72870 25.10290 19301 ft 408 kts 17°
2026-05-06 16:31 59.75456 25.12471 18613 ft 402 kts 17°
2026-05-06 16:31 59.78007 25.14626 17930 ft 395 kts 17°
2026-05-06 16:31 59.80532 25.16762 17247 ft 389 kts 18°
2026-05-06 16:32 59.82982 25.18838 16574 ft 383 kts 18°
2026-05-06 16:32 59.85380 25.20876 15892 ft 378 kts 18°
2026-05-06 16:32 59.87770 25.22912 15330 ft 363 kts 18°
2026-05-06 16:32 59.90008 25.24625 14725 ft 331 kts
2026-05-06 16:33 59.92254 25.24780 14322 ft 330 kts 351°
2026-05-06 16:33 59.94544 25.24532 13835 ft 335 kts 351°
2026-05-06 16:33 59.96876 25.24234 13307 ft 335 kts 351°
2026-05-06 16:34 60.01471 25.23602 12270 ft 327 kts 352°
2026-05-06 16:34 60.03716 25.23285 11740 ft 324 kts 352°
2026-05-06 16:34 60.05927 25.22972 11236 ft 316 kts 353°
2026-05-06 16:34 60.08074 25.22667 10788 ft 306 kts 353°
2026-05-06 16:35 60.10171 25.22368 10332 ft 298 kts 353°
2026-05-06 16:35 60.12221 25.22076 9893 ft 290 kts 353°
2026-05-06 16:35 60.14205 25.21792 9438 ft 284 kts 354°
2026-05-06 16:35 60.16078 25.21524 9016 ft 278 kts 354°
2026-05-06 16:36 60.17755 25.21283 8568 ft 274 kts 354°
2026-05-06 16:36 60.19629 25.21015 8083 ft 270 kts 354°
2026-05-06 16:36 60.21489 25.20748 7652 ft 267 kts 355°
2026-05-06 16:36 60.23322 25.20484 7315 ft 264 kts 355°
2026-05-06 16:37 60.24871 25.20262 7057 ft 263 kts 355°
2026-05-06 16:37 60.26552 25.20020 6799 ft 262 kts 355°
2026-05-06 16:37 60.28372 25.19757 6525 ft 262 kts 355°
2026-05-06 16:37 60.30186 25.19521 6247 ft 261 kts 360°
2026-05-06 16:38 60.31889 25.20592 5978 ft 263 kts 34°
2026-05-06 16:38 60.33172 25.23106 5768 ft 253 kts 45°
2026-05-06 16:38 60.34347 25.25675 5520 ft 245 kts 45°
2026-05-06 16:38 60.35452 25.28114 5266 ft 237 kts 45°
2026-05-06 16:39 60.36550 25.30549 5023 ft 231 kts 46°
2026-05-06 16:39 60.37640 25.32970 4788 ft 229 kts 46°
2026-05-06 16:39 60.38717 25.35315 4591 ft 230 kts 38°
2026-05-06 16:39 60.40172 25.36451 4420 ft 226 kts 356°
2026-05-06 16:40 60.41689 25.35345 4317 ft 246 kts 322°
2026-05-06 16:40 60.42981 25.33124 4139 ft 235 kts 318°
2026-05-06 16:40 60.44172 25.30988 3907 ft 227 kts 318°
2026-05-06 16:40 60.45126 25.28615 3740 ft 213 kts 289°
2026-05-06 16:41 60.45084 25.25746 3579 ft 203 kts 246°
2026-05-06 16:41 60.44314 25.23445 3398 ft 194 kts 234°
2026-05-06 16:41 60.43507 25.21303 3154 ft 188 kts 233°
2026-05-06 16:41 60.42692 25.19331 2993 ft 176 kts 231°
2026-05-06 16:42 60.41919 25.17525 2823 ft 162 kts 231°
2026-05-06 16:42 60.41189 25.15868 2591 ft 154 kts 230°
2026-05-06 16:42 60.40488 25.14323 2379 ft 145 kts 230°
2026-05-06 16:42 60.39812 25.12821 2198 ft 144 kts 230°
2026-05-06 16:43 60.39125 25.11298 2007 ft 145 kts 230°
2026-05-06 16:43 60.38446 25.09792 1800 ft 141 kts 230°
2026-05-06 16:43 60.37825 25.08418 1600 ft 122 kts 229°
2026-05-06 16:43 60.37284 25.07221 1412 ft 110 kts 229°
2026-05-06 16:44 60.36770 25.06080 1282 ft 110 kts 229°
2026-05-06 16:44 60.36253 25.04937 1151 ft 111 kts 228°
2026-05-06 16:44 60.35734 25.03788 1005 ft 111 kts 227°
2026-05-06 16:44 60.35212 25.02635 851 ft 111 kts 227°
2026-05-06 16:45 60.34693 25.01488 701 ft 110 kts 227°
2026-05-06 16:45 60.34177 25.00351 545 ft 110 kts 226°
2026-05-06 16:45 60.33654 24.99223 409 ft 108 kts 226°
2026-05-06 16:45 60.33154 24.98101 256 ft 108 kts 226°
2026-05-06 16:46 60.32670 24.97039 188 ft 85 kts 227°
2026-05-06 16:46 60.32318 24.96257 188 ft 72 kts 228°
2026-05-06 16:46 60.32005 24.95563 188 ft 61 kts 227°
2026-05-06 16:46 60.31736 24.94973 188 ft 53 kts 227°
2026-05-06 16:47 60.31502 24.94461 188 ft 46 kts 227°
2026-05-06 16:47 60.31292 24.93998 188 ft 42 kts 227°
2026-05-06 16:47 60.31144 24.93671 188 ft 20 kts 226°
2026-05-06 16:47 60.31019 24.93668 188 ft 19 kts 139°
2026-05-06 16:48 60.30915 24.93854 188 ft 20 kts 139°
2026-05-06 16:48 60.30810 24.93971 188 ft 11 kts 128°
2026-05-06 16:48 60.30820 24.94045 188 ft 4 kts 46°
2026-05-06 16:48 60.30831 24.94066 188 ft 5 kts 40°
2026-05-06 16:49 60.30925 24.94065 188 ft 25 kts 348°
2026-05-06 16:49 60.30998 24.93916 188 ft 10 kts 229°
2026-05-06 16:49 60.30934 24.93829 188 ft 2 kts 156°
2026-05-06 16:49 60.30791 24.93955 188 ft 22 kts 175°
2026-05-06 16:50 60.30739 24.94082 188 ft 11 kts 55°
2026-05-06 16:50 60.30782 24.94196 188 ft 5 kts 104°
2026-05-06 16:50 60.30755 24.94251 188 ft 0 kts 136°